TimeCST,TemperatureF,Dew PointF,Humidity,Sea Level PressureIn,VisibilityMPH,Wind Direction,Wind SpeedMPH,Gust SpeedMPH,PrecipitationIn,Events,Conditions,WindDirDegrees,DateUTC
12:53 AM,64.9,60.1,84,30.00,10.0,Variable,6.9,-,N/A,,Partly Cloudy,0,2013-01-13 06:53:00
1:53 AM,64.9,59.0,81,29.99,10.0,South,5.8,-,N/A,,Clear,180,2013-01-13 07:53:00
2:53 AM,64.9,59.0,81,29.98,10.0,South,6.9,-,N/A,,Clear,180,2013-01-13 08:53:00
3:32 AM,64.4,59.0,83,29.99,10.0,SSW,6.9,-,N/A,,Overcast,210,2013-01-13 09:32:00
3:53 AM,66.0,59.0,78,29.98,10.0,South,4.6,-,N/A,,Overcast,190,2013-01-13 09:53:00
4:53 AM,66.9,59.0,76,29.97,10.0,South,5.8,-,N/A,,Overcast,190,2013-01-13 10:53:00
5:53 AM,66.0,60.1,81,30.00,10.0,SSW,4.6,-,N/A,,Mostly Cloudy,210,2013-01-13 11:53:00
6:53 AM,64.9,60.1,84,30.04,10.0,SW,3.5,-,N/A,,Overcast,220,2013-01-13 12:53:00
7:53 AM,66.9,61.0,81,30.04,10.0,Calm,Calm,-,N/A,,Overcast,0,2013-01-13 13:53:00
8:28 AM,68.0,60.8,78,30.06,10.0,Variable,6.9,-,N/A,,Overcast,0,2013-01-13 14:28:00
8:53 AM,68.0,61.0,78,30.04,10.0,SSW,8.1,-,N/A,,Overcast,200,2013-01-13 14:53:00
10:37 AM,69.8,60.8,73,30.05,10.0,South,10.4,18.4,N/A,,Overcast,180,2013-01-13 16:37:00
10:53 AM,70.0,61.0,73,30.03,10.0,SSW,11.5,17.3,N/A,,Overcast,210,2013-01-13 16:53:00
11:07 AM,69.8,60.8,73,30.04,10.0,South,10.4,16.1,N/A,,Overcast,190,2013-01-13 17:07:00
11:50 AM,71.6,60.8,69,30.03,10.0,South,15.0,19.6,N/A,,Overcast,190,2013-01-13 17:50:00
11:53 AM,71.1,60.1,68,30.01,10.0,South,11.5,18.4,N/A,,Overcast,190,2013-01-13 17:53:00
12:53 PM,71.1,60.1,68,29.99,10.0,South,6.9,19.6,N/A,,Overcast,190,2013-01-13 18:53:00
2:53 PM,73.0,60.1,64,29.97,10.0,South,9.2,-,N/A,,Mostly Cloudy,190,2013-01-13 20:53:00
4:53 PM,71.1,61.0,70,29.97,10.0,South,8.1,-,N/A,,Partly Cloudy,170,2013-01-13 22:53:00
5:53 PM,71.1,62.1,73,29.98,10.0,South,6.9,-,N/A,,Overcast,180,2013-01-13 23:53:00
6:53 PM,70.0,62.1,76,29.98,10.0,South,13.8,24.2,0.00,,Overcast,170,2013-01-14 00:53:00
8:53 PM,66.9,64.9,93,30.00,4.0,WSW,15.0,21.9,0.06,Rain,Rain,250,2013-01-14 02:53:00
8:58 PM,66.2,64.4,94,30.03,1.8,WSW,11.5,21.9,0.10,Rain,Heavy Rain,250,2013-01-14 02:58:00
9:06 PM,64.4,64.4,100,30.02,1.0,SSW,8.1,-,0.29,Rain,Heavy Rain,210,2013-01-14 03:06:00
9:14 PM,64.4,64.4,100,30.03,1.2,Calm,Calm,-,0.40,Rain,Rain,0,2013-01-14 03:14:00
9:24 PM,64.4,62.6,94,30.03,3.0,North,6.9,-,0.43,Rain,Light Rain,360,2013-01-14 03:24:00
9:36 PM,62.6,60.8,94,30.04,4.0,Variable,5.8,-,0.47,Rain,Rain,0,2013-01-14 03:36:00
9:53 PM,62.1,59.0,90,30.03,7.0,Calm,Calm,-,0.51,Rain,Light Rain,0,2013-01-14 03:53:00
10:09 PM,62.6,60.8,94,30.06,10.0,Calm,Calm,-,0.00,Rain,Light Rain,0,2013-01-14 04:09:00
10:51 PM,62.6,59.0,88,30.06,9.0,Calm,Calm,-,0.02,Rain,Light Rain,0,2013-01-14 04:51:00
10:53 PM,61.0,59.0,93,30.05,9.0,Calm,Calm,-,0.02,Rain,Light Rain,0,2013-01-14 04:53:00
11:49 PM,60.8,59.0,94,30.06,9.0,Calm,Calm,-,0.08,Rain,Light Rain,0,2013-01-14 05:49:00